User: anonymous   Login
Location: Makakahi
(40.6833°S, 175.6000°E)
Time: 00:47:00
(UTC+00:00)
Language:

Meteor 1-23 Rocket - Orbit

View from above orbital plane
View from above orbital plane
View from above satellite
View from above satellite

Ground track
Ground track

The orbit data is extracted from the following two-line orbital elements,

1  8520U 75124B   25322.43211789  .00000193  00000-0  10315-3 0  9999
2  8520  81.2878  73.5467 0029451 282.0148  77.7722 14.09396615564112
Epoch (UTC): 18 November 2025 10:22:14
Eccentricity: 0.0029451
inclination: 81.2878°
perigee height: 840 km
apogee height: 883 km
right ascension of ascending node: 73.5467°
argument of perigee: 282.0148°
revolutions per day: 14.09396615
mean anomaly at epoch: 77.7722°
orbit number at epoch: 56411

The dashed part of the orbit path shows where the satellite is in the earth's shadow,  

DLR